EW7157 Weather Reports


Display with metric or nautical units.
time (UTC)temp
F
wind
direction
speed
MPH
gust
MPH
rain 1hr
in
rain 24hr
in
rain mn
in
humidity
%
barometer
mb
20260904190323 89 132 0.0 1.0 0.00 0.03 0.02 54 1034.2
20260904185322 89 157 0.0 2.0 0.00 0.03 0.02 55 1034.2
20260904184325 87 165 0.0 3.0 0.00 0.03 0.02 57 1034.3
20260904183422 86 135 0.0 0.0 0.00 0.03 0.02 61 1034.5
20260904182424 84 135 0.0 2.0 0.00 0.03 0.02 64 1034.6
20260904181522 82 157 0.0 0.0 0.00 0.03 0.02 68 1034.4
20260904181438 82 157 0.0 0.0 0.00 0.03 0.02 69 1034.4
20260904181322 82 157 0.0 0.0 0.00 0.03 0.02 69 1034.4
20260904175323 82 180 0.0 0.0 0.00 0.03 0.02 70 1034.6
20260904174322 82 225 0.0 0.0 0.00 0.03 0.02 68 1034.5
20260904173322 83 225 0.0 0.0 0.00 0.03 0.02 67 1034.7
20260904172323 83 225 0.0 0.0 0.00 0.03 0.02 65 1034.6
20260904172240 83 225 0.0 0.0 0.00 0.03 0.02 66 1034.7
20260904171125 83 225 0.0 0.0 0.00 0.03 0.02 66 1034.5
20260904170221 83 225 0.0 0.0 0.00 0.03 0.02 64 1034.8
20260904165223 84 180 0.0 0.0 0.00 0.03 0.02 63 1034.7
20260904165123 84 180 0.0 0.0 0.00 0.03 0.02 63 1034.8
20260904163122 86 180 0.0 0.0 0.00 0.03 0.02 60 1034.9
20260904163022 86 180 0.0 0.0 0.00 0.03 0.02 59 1034.7
20260904162022 86 135 0.0 0.0 0.00 0.03 0.02 57 1034.9
20260904161121 86 135 0.0 0.0 0.00 0.03 0.02 57 1034.8
20260904160122 86 194 0.0 2.0 0.00 0.03 0.02 58 1034.9
20260904155122 87 135 0.0 0.0 0.00 0.03 0.02 57 1034.9
20260904155024 87 135 0.0 0.0 0.00 0.03 0.02 57 1034.9
20260904153140 87 152 0.0 2.0 0.02 0.03 0.02 58 1035.0
20260904153022 87 156 0.0 0.0 0.02 0.03 0.02 57 1035.0
20260904152022 87 180 0.0 0.0 0.02 0.03 0.02 57 1035.0
20260904150921 87 180 0.0 1.0 0.02 0.03 0.02 59 1035.1
20260904144922 85 180 0.0 0.0 0.02 0.03 0.02 62 1035.0
20260904144824 85 180 0.0 0.0 0.02 0.03 0.02 63 1035.1
20260904143823 85 166 0.0 0.0 0.02 0.03 0.01 63 1034.9
20260904142823 84 177 0.0 0.0 0.00 0.01 0.00 64 1034.9
20260904141922 84 135 0.0 2.0 0.00 0.01 0.00 63 1034.8
20260904140824 83 157 0.0 2.0 0.00 0.01 0.00 68 1034.8
20260904135822 82 157 0.0 2.0 0.00 0.01 0.00 70 1034.7
20260904133821 79 156 1.0 4.0 0.00 0.01 0.00 75 1034.8
20260904132822 77 135 0.0 0.0 0.00 0.01 0.00 78 1034.8
20260904131822 76 122 0.0 4.0 0.00 0.01 0.00 80 1034.8
20260904130823 75 157 0.0 0.0 0.00 0.01 0.00 82 1034.9
20260904125824 75 135 0.0 0.0 0.00 0.01 0.00 82 1034.8
20260904124822 74 180 0.0 2.0 0.00 0.01 0.00 83 1034.8
20260904123823 74 135 0.0 1.0 0.00 0.01 0.00 85 1035.0
20260904123721 74 147 1.0 3.0 0.00 0.01 0.00 86 1035.1
20260904122723 73 135 0.0 2.0 0.00 0.01 0.00 88 1035.0
20260904121722 72 135 0.0 0.0 0.00 0.01 0.00 89 1034.8
20260904120822 72 180 0.0 1.0 0.00 0.01 0.00 90 1034.9
20260904113824 71 180 0.0 0.0 0.00 0.01 0.00 90 1034.8
20260904111822 71 180 0.0 0.0 0.00 0.01 0.00 91 1034.6
20260904110822 71 180 0.0 0.0 0.00 0.01 0.00 92 1034.5
20260904105826 71 180 0.0 0.0 0.00 0.01 0.00 92 1034.1
20260904104922 71 180 0.0 0.0 0.00 0.01 0.00 92 1034.2
20260904103923 71 180 0.0 0.0 0.00 0.01 0.00 91 1034.0
20260904102924 72 180 0.0 0.0 0.00 0.01 0.00 91 1034.0
20260904102824 72 180 0.0 0.0 0.00 0.01 0.00 92 1033.9
20260904101723 72 180 0.0 0.0 0.00 0.01 0.00 92 1033.9
20260904100724 72 180 0.0 1.0 0.00 0.01 0.00 92 1034.1
20260904095724 73 180 0.0 0.0 0.00 0.01 0.00 91 1034.0
20260904091821 73 180 0.0 0.0 0.00 0.08 0.00 91 1034.0
20260904090822 73 180 0.0 0.0 0.00 0.10 0.00 92 1034.1
20260904085823 73 180 0.0 0.0 0.00 0.14 0.00 91 1033.9
20260904084822 73 180 0.0 0.0 0.00 0.16 0.00 92 1034.0
20260904083822 73 180 0.0 0.0 0.00 0.17 0.00 91 1034.0
20260904082823 74 180 0.0 0.0 0.00 0.23 0.00 92 1034.0
20260904081922 74 180 0.0 0.0 0.00 0.24 0.00 91 1033.8
20260904080924 74 180 0.0 0.0 0.00 0.24 0.00 91 1033.9
20260904075922 74 180 0.0 0.0 0.00 0.25 0.00 93 1034.1
20260904074022 74 180 0.0 0.0 0.00 0.25 0.00 93 1034.0
20260904073023 74 180 0.0 0.0 0.00 0.25 0.00 92 1033.9
20260904071023 74 180 0.0 0.0 0.00 0.25 0.00 92 1033.7
20260904070922 74 180 0.0 0.0 0.00 0.25 0.00 92 1033.6
20260904065922 74 180 0.0 0.0 0.00 0.25 0.00 90 1033.4
20260904064921 74 180 0.0 0.0 0.00 0.25 0.00 90 1033.1
20260904062925 74 180 0.0 0.0 0.00 0.26 0.00 91 1033.2
20260904062022 74 180 0.0 0.0 0.00 0.27 0.00 91 1033.4
20260904061024 74 180 0.0 0.0 0.00 0.28 0.00 91 1033.4
20260904060023 75 180 0.0 0.0 0.00 0.37 0.00 90 1033.6
20260904055023 75 180 0.0 0.0 0.00 0.61 0.00 91 1034.0
20260904053021 75 180 0.0 0.0 0.00 0.63 0.00 91 1034.2
20260904052022 75 180 0.0 0.0 0.00 0.64 0.00 91 1034.2
20260904051022 75 180 0.0 0.0 0.00 0.64 0.00 91 1034.0
20260904050022 75 180 0.0 0.0 0.00 0.64 0.00 90 1034.3
20260904045121 75 180 0.0 0.0 0.00 0.64 0.00 90 1034.0
20260904044124 75 180 0.0 0.0 0.00 0.64 0.00 91 1034.1
20260904043222 75 180 0.0 0.0 0.00 0.64 0.00 91 1034.3
20260904042222 75 180 0.0 0.0 0.00 0.64 0.00 91 1034.4
20260904041321 75 180 0.0 0.0 0.00 0.64 0.00 91 1034.5
20260904040322 75 180 0.0 0.0 0.00 0.64 0.00 91 1034.8
20260904035326 75 180 0.0 0.0 0.00 0.64 0.64 92 1034.6
20260904034425 75 180 0.0 0.0 0.00 0.64 0.64 91 1034.7
20260904033426 75 180 0.0 0.0 0.00 0.64 0.64 91 1034.9
20260904032425 75 180 0.0 0.0 0.00 0.64 0.64 91 1035.0
20260904032326 75 180 0.0 0.0 0.00 0.64 0.64 92 1035.0
20260904032227 75 180 0.0 0.0 0.00 0.64 0.64 92 1035.1
20260904031226 75 180 0.0 0.0 0.00 0.64 0.64 92 1035.3
20260904030325 75 180 0.0 0.0 0.00 0.64 0.64 91 1035.2
20260904025327 75 180 0.0 0.0 0.00 0.64 0.64 91 1035.2
20260904024325 75 180 0.0 0.0 0.00 0.64 0.64 91 1035.0
20260904023425 76 180 0.0 0.0 0.00 0.64 0.64 90 1035.1
20260904021427 76 180 0.0 0.0 0.00 0.64 0.64 89 1035.3
20260904021329 76 180 0.0 0.0 0.00 0.64 0.64 90 1035.2
20260904021227 76 180 0.0 0.0 0.00 0.64 0.64 90 1035.2
20260904020226 76 180 0.0 0.0 0.00 0.64 0.64 90 1035.4
20260904020125 76 180 0.0 0.0 0.00 0.64 0.64 89 1035.5
20260904020026 76 180 0.0 0.0 0.00 0.64 0.64 89 1035.5
20260904015125 76 180 0.0 0.0 0.00 0.64 0.64 89 1035.4
20260904014126 76 180 0.0 0.0 0.00 0.64 0.64 88 1035.6
20260904014027 76 180 0.0 0.0 0.00 0.64 0.64 88 1035.6
20260904013027 76 180 0.0 0.0 0.00 0.64 0.64 86 1035.6
20260904012026 76 180 0.0 0.0 0.00 0.64 0.64 85 1035.8
20260904011927 76 180 0.0 0.0 0.00 0.64 0.64 85 1035.7
20260904005827 77 180 0.0 0.0 0.00 0.64 0.64 83 1035.8
20260904004827 77 180 0.0 0.0 0.00 0.64 0.64 83 1035.7
20260904003925 77 180 0.0 0.0 0.00 0.64 0.64 83 1035.8
20260904002926 77 180 0.0 0.0 0.00 0.64 0.64 82 1035.4
20260904001926 77 180 0.0 0.0 0.00 0.64 0.64 82 1035.2
20260904001843 77 180 0.0 0.0 0.00 0.64 0.64 82 1035.2
20260904000826 77 180 0.0 0.0 0.00 0.64 0.64 80 1035.0
20260903235825 77 180 0.0 0.0 0.00 0.64 0.64 81 1035.0
20260903233926 78 180 0.0 0.0 0.00 0.64 0.64 81 1035.3
20260903232927 78 180 0.0 0.0 0.01 0.64 0.64 80 1035.1
20260903231928 78 180 0.0 0.0 0.01 0.64 0.64 78 1034.9
20260903225926 79 180 0.0 0.0 0.01 0.64 0.64 78 1034.8
20260903224928 80 180 0.0 0.0 0.01 0.64 0.64 78 1035.0
20260903223927 80 180 0.0 0.0 0.01 0.64 0.64 76 1034.6
20260903222926 80 157 0.0 0.0 0.00 0.63 0.63 75 1034.7
20260903221927 81 157 0.0 0.0 0.00 0.63 0.63 74 1034.6
20260903221026 81 157 0.0 0.0 0.00 0.63 0.63 73 1034.6
20260903220026 82 157 0.0 0.0 0.00 0.63 0.63 72 1034.5
20260903215026 82 157 0.0 0.0 0.00 0.63 0.63 71 1034.4
20260903214025 83 157 0.0 0.0 0.00 0.63 0.63 69 1034.3
20260903213026 83 157 0.0 0.0 0.00 0.63 0.63 68 1034.3
20260903212028 84 157 0.0 0.0 0.00 0.63 0.63 66 1034.2
20260903211027 85 157 0.0 0.0 0.00 0.63 0.63 66 1034.4
20260903210027 86 157 0.0 0.0 0.00 0.63 0.63 63 1034.4
20260903205025 87 180 0.0 0.0 0.00 0.63 0.63 62 1034.4
20260903204927 87 180 0.0 0.0 0.00 0.63 0.63 62 1034.5
20260903204843 87 180 0.0 0.0 0.00 0.63 0.63 63 1034.5
20260903203925 88 225 0.0 0.0 0.00 0.63 0.63 61 1034.4
20260903202926 89 225 0.0 0.0 0.00 0.63 0.63 60 1034.7
20260903200927 90 157 0.0 0.0 0.00 0.63 0.63 58 1034.8
20260903200026 91 159 0.0 0.0 0.00 0.63 0.63 56 1034.9
20260903195928 91 98 0.0 0.0 0.00 0.63 0.63 56 1034.8
20260903194927 92 180 0.0 0.0 0.00 0.63 0.63 53 1034.9
20260903193927 93 135 0.0 0.0 0.00 0.63 0.63 53 1035.0
20260903192926 93 67 0.0 0.0 0.00 0.63 0.63 53 1035.1
20260903191927 93 47 0.0 0.0 0.00 0.63 0.63 54 1035.3